FW7585 Weather Reports


time (UTC)temp
C
wind
direction
speed
KPH
gust
KPH
rain 1hr
cm
rain 24hr
cm
rain mn
cm
humidity
%
barometer
mb
20260503211003 16 310 4.8 16.1 0.00 0.00 0.00 66 1013.8
20260503210053 16 359 4.8 12.9 0.00 0.00 0.00 65 1013.0
20260503210003 16 312 4.8 12.9 0.00 0.00 0.00 65 1013.9
20260503205003 16 252 3.2 12.9 0.00 0.00 0.00 64 1013.9
20260503204557 16 59 1.6 9.7 0.00 0.00 0.00 65 1012.9
20260503204003 16 306 3.2 8.0 0.00 0.00 0.00 66 1013.8
20260503203041 15 226 1.6 9.7 0.00 0.00 0.00 66 1013.1
20260503203024 16 234 1.6 9.7 0.00 0.00 0.00 66 1014.0
20260503202003 16 253 3.2 12.9 0.00 0.00 0.00 66 1014.2
20260503201538 16 237 1.6 12.9 0.00 0.00 0.00 66 1013.3
20260503201003 16 266 3.2 12.9 0.00 0.00 0.00 66 1014.1
20260503200047 16 0 3.2 12.9 0.00 0.00 0.00 64 1013.1
20260503200003 16 314 4.8 12.9 0.00 0.00 0.00 65 1013.9
20260503195003 16 322 3.2 11.3 0.00 0.00 0.00 66 1013.9
20260503194601 16 277 1.6 8.0 0.00 0.00 0.00 65 1013.1
20260503194003 16 258 1.6 8.0 0.00 0.00 0.00 66 1014.0
20260503193042 16 0 0.0 11.3 0.00 0.00 0.00 67 1013.2
20260503193024 16 349 1.6 11.3 0.00 0.00 0.00 68 1014.1
20260503192003 16 329 3.2 12.9 0.00 0.00 0.00 67 1014.1
20260503191543 16 304 1.6 9.7 0.00 0.00 0.00 66 1013.2
20260503191003 16 307 1.6 9.7 0.00 0.00 0.00 65 1014.0
20260503190046 16 0 1.6 11.3 0.00 0.00 0.00 64 1013.2
20260503190024 16 274 1.6 11.3 0.00 0.00 0.00 64 1014.0
20260503185003 16 273 1.6 11.3 0.00 0.00 0.00 63 1013.9
20260503184537 16 330 0.0 11.3 0.00 0.00 0.00 65 1013.2
20260503184003 16 284 1.6 11.3 0.00 0.00 0.00 64 1014.1
20260503183051 15 0 0.0 6.4 0.00 0.00 0.00 66 1013.1
20260503183003 15 258 1.6 6.4 0.00 0.00 0.00 66 1014.0
20260503182024 15 335 4.8 12.9 0.00 0.00 0.00 67 1013.9
20260503181544 15 302 4.8 9.7 0.00 0.00 0.00 66 1013.1
20260503181004 15 309 1.6 6.4 0.00 0.00 0.00 68 1014.0
20260503180056 15 359 1.6 11.3 0.00 0.00 0.00 69 1013.2
20260503180003 15 331 1.6 11.3 0.00 0.00 0.00 69 1014.0
20260503175003 15 333 4.8 11.3 0.00 0.00 0.00 70 1013.8
20260503174542 14 314 3.2 9.7 0.00 0.00 0.00 70 1013.0
20260503174024 15 274 1.6 8.0 0.00 0.00 0.00 73 1013.9
20260503173113 14 200 0.0 8.0 0.00 0.00 0.00 72 1013.0
20260503173003 15 249 1.6 8.0 0.00 0.00 0.00 73 1013.8
20260503172003 14 310 1.6 11.3 0.00 0.00 0.00 73 1013.8
20260503171546 14 0 1.6 6.4 0.00 0.00 0.00 73 1013.1
20260503171024 14 0 0.0 0.0 0.00 0.00 0.00 76 1014.0
20260503151003 12 0 0.0 0.0 0.00 0.00 0.00 89 1013.5
20260503131024 11 0 0.0 0.0 0.00 0.00 0.00 89 1012.3
20260503081550 11 0 0.0 0.0 0.00 0.00 0.00 84 1012.1
20260503081003 12 0 0.0 0.0 0.00 0.00 0.00 84 1012.9
20260503072003 12 0 0.0 0.0 0.00 0.00 0.00 85 1013.1
20260503071545 11 0 0.0 0.0 0.00 0.00 0.00 85 1012.3
20260503071003 12 0 0.0 0.0 0.00 0.00 0.00 85 1013.1
20260503055003 12 323 0.0 8.0 0.00 0.00 0.00 84 1013.4
20260503054543 11 325 0.0 1.6 0.00 0.00 0.00 83 1012.5
20260503054003 12 334 0.0 6.4 0.00 0.00 0.00 84 1013.4
20260503053042 11 360 1.6 8.0 0.00 0.00 0.00 84 1012.5
20260503053003 12 345 0.0 8.0 0.00 0.00 0.00 84 1013.4
20260503052024 12 329 1.6 6.4 0.00 0.00 0.00 84 1013.4
20260503051540 11 0 0.0 8.0 0.00 0.00 0.00 83 1012.6
20260503051003 12 336 1.6 8.0 0.00 0.00 0.00 83 1013.4
20260503050038 11 0 1.6 9.7 0.00 0.00 0.00 82 1012.6
20260503050025 12 339 1.6 9.7 0.00 0.00 0.00 83 1013.5
20260503045003 12 320 0.0 8.0 0.00 0.00 0.00 84 1013.5
20260503044542 12 0 0.0 4.8 0.00 0.00 0.00 83 1012.6
20260503044003 12 310 0.0 4.8 0.00 0.00 0.00 84 1013.4
20260503043044 12 0 0.0 12.9 0.00 0.00 0.00 83 1012.6
20260503043004 12 330 1.6 12.9 0.00 0.00 0.00 84 1013.4
20260503042003 12 336 1.6 9.7 0.00 0.00 0.00 83 1013.2
20260503041545 12 0 3.2 9.7 0.00 0.00 0.00 83 1012.3
20260503041025 12 338 1.6 9.7 0.00 0.00 0.00 83 1013.2
20260503040040 12 0 0.0 6.4 0.00 0.00 0.00 82 1012.1
20260503040004 12 330 0.0 4.8 0.00 0.00 0.00 82 1013.1
20260503035003 12 337 3.2 12.9 0.00 0.00 0.00 81 1013.0
20260503034537 12 338 3.2 12.9 0.00 0.00 0.00 81 1012.1
20260503034003 12 336 3.2 12.9 0.00 0.00 0.00 81 1012.9
20260503033045 12 355 4.8 14.5 0.00 0.00 0.00 81 1012.1
20260503033003 12 332 4.8 14.5 0.00 0.00 0.00 82 1012.9
20260503032025 12 329 3.2 9.7 0.00 0.00 0.00 82 1012.7
20260503031553 12 323 1.6 17.7 0.00 0.00 0.00 82 1011.9
20260503031003 12 339 6.4 17.7 0.00 0.00 0.00 82 1012.6
20260503030047 12 330 8.0 19.3 0.00 0.00 0.00 81 1011.7
20260503030003 12 328 6.4 19.3 0.00 0.00 0.00 81 1012.4
20260503025003 12 330 6.4 17.7 0.00 0.00 0.00 82 1012.5
20260503024547 12 255 4.8 12.9 0.00 0.00 0.00 81 1011.5
20260503024003 12 329 6.4 17.7 0.00 0.00 0.00 81 1012.4
20260503023039 12 359 4.8 20.9 0.00 0.00 0.00 80 1011.3
20260503023003 12 328 6.4 20.9 0.00 0.00 0.00 81 1012.2
20260503022003 12 326 6.4 14.5 0.00 0.00 0.00 80 1012.3
20260503021540 12 262 6.4 14.5 0.00 0.00 0.00 79 1011.4
20260503021003 12 327 6.4 16.1 0.00 0.00 0.00 79 1012.4
20260503020041 12 271 4.8 17.7 0.00 0.00 0.00 77 1011.6
20260503020003 13 324 6.4 16.1 0.00 0.00 0.00 78 1012.4
20260503015003 13 329 8.0 17.7 0.00 0.00 0.00 77 1012.4
20260503014537 13 320 6.4 17.7 0.00 0.00 0.00 76 1011.6
20260503014003 13 323 8.0 17.7 0.00 0.00 0.00 76 1012.4
20260503013044 13 348 6.4 14.5 0.00 0.00 0.00 75 1011.6
20260503013003 13 298 6.4 14.5 0.00 0.00 0.00 76 1012.4
20260503012003 14 312 6.4 16.1 0.00 0.00 0.00 76 1012.4
20260503011553 13 281 4.8 16.1 0.00 0.00 0.00 75 1011.5
20260503011004 14 303 4.8 12.9 0.00 0.00 0.00 75 1012.4
20260503010040 14 295 4.8 14.5 0.00 0.00 0.00 73 1011.5
20260503010003 15 329 6.4 14.5 0.00 0.00 0.00 74 1012.3
20260503005024 15 323 6.4 14.5 0.00 0.00 0.00 74 1012.2
20260503004544 15 255 6.4 14.5 0.00 0.00 0.00 73 1011.4
20260503004003 15 313 6.4 14.5 0.00 0.00 0.00 74 1012.5
20260503003044 14 322 6.4 17.7 0.00 0.00 0.00 74 1011.7
20260503003003 15 322 8.0 17.7 0.00 0.00 0.00 75 1012.6
20260503002024 15 317 8.0 20.9 0.00 0.00 0.00 74 1012.5
20260503001543 15 11 8.0 17.7 0.00 0.00 0.00 73 1011.6
20260503001024 15 314 6.4 16.1 0.00 0.00 0.00 73 1012.5
20260503000058 15 1 6.4 19.3 0.00 0.00 0.00 71 1011.8
20260503000003 16 306 8.0 19.3 0.00 0.00 0.00 72 1012.6
20260502235024 16 319 6.4 16.1 0.00 0.00 0.00 72 1012.5
20260502234546 16 328 6.4 20.9 0.00 0.00 0.00 71 1011.6
20260502234003 16 325 8.0 20.9 0.00 0.00 0.00 72 1012.6
20260502233040 16 327 8.0 17.7 0.00 0.00 0.00 69 1011.8
20260502233003 16 318 6.4 17.7 0.00 0.00 0.00 70 1012.7
20260502232003 16 321 6.4 16.1 0.00 0.00 0.00 71 1012.6
20260502231547 16 278 4.8 19.3 0.00 0.00 0.00 71 1011.9
20260502231003 16 333 8.0 19.3 0.00 0.00 0.00 70 1012.8
20260502230046 16 337 4.8 16.1 0.00 0.00 0.00 70 1012.2
20260502230003 16 327 6.4 16.1 0.00 0.00 0.00 70 1013.0
20260502225003 16 334 8.0 19.3 0.00 0.00 0.00 70 1013.1
20260502224554 16 268 8.0 19.3 0.00 0.00 0.00 69 1012.4
20260502224003 17 335 8.0 19.3 0.00 0.00 0.00 69 1013.3
20260502223045 17 260 6.4 16.1 0.00 0.00 0.00 68 1012.4
20260502223003 17 326 6.4 16.1 0.00 0.00 0.00 68 1013.2
20260502222003 17 321 4.8 12.9 0.00 0.00 0.00 68 1013.5
20260502221542 17 360 4.8 12.9 0.00 0.00 0.00 68 1012.9
20260502221003 17 318 6.4 16.1 0.00 0.00 0.00 68 1013.7
20260502220048 17 349 6.4 20.9 0.00 0.00 0.00 68 1012.9
20260502220003 17 338 6.4 17.7 0.00 0.00 0.00 69 1013.8
20260502215003 17 317 6.4 20.9 0.00 0.00 0.00 70 1013.8
20260502214539 16 278 4.8 16.1 0.00 0.00 0.00 70 1013.0
20260502214024 16 322 6.4 20.9 0.00 0.00 0.00 70 1013.8
20260502213037 16 352 4.8 16.1 0.00 0.00 0.00 71 1013.0
20260502213024 16 332 6.4 16.1 0.00 0.00 0.00 72 1013.9
20260502212003 16 333 8.0 22.5 0.00 0.00 0.00 72 1013.9
20260502211544 16 360 8.0 19.3 0.00 0.00 0.00 71 1013.1